DW8618 Nerja ES current weather conditions

sailwx.info

Wind from 136 at 4 knots gusting 9

Air temperature 13.3° C
Dewpoint 5.7° C

Last reported at 2015-Mar-05 09:45 UTC.
Time now 2015-Mar-05 10:24 UTC

Location: N 36°46' W 003°52'.
View on Google Maps.

See reports from other nearby stations

  
Tides and Currents Weather Stations Pressure Air Temp Water Temp Dewpoint Dewpoint Depression Visibility Wind Speed Wind Dir Waves Ship Positions
date/time (UTC)wind fromknots sea level pressurealtimeterstation pressurevisibilityair tempwater tempwave heightnotes
2015-Mar-05 09:45 136 4 gusting 9 13.3
2015-Mar-05 09:30 179 6 gusting 13 12.8
2015-Mar-05 09:15 109 3 gusting 13 12.2
2015-Mar-05 09:01 104 12.2
2015-Mar-05 08:45 107 1 gusting 7 12.8
2015-Mar-05 08:30 110 0 gusting 4 12.8
2015-Mar-05 08:15 110 3 gusting 9 12.8
2015-Mar-05 08:01 114 12.8
2015-Mar-05 07:45 114 12.8
2015-Mar-05 07:30 114 13.3
2015-Mar-05 07:15 114 13.3
2015-Mar-05 07:01 114 13.3
2015-Mar-05 06:45 114 0 gusting 6 13.3
2015-Mar-05 06:30 114 1 gusting 7 13.3
2015-Mar-05 06:15 119 0 gusting 7 13.3
2015-Mar-05 06:01 119 13.3
2015-Mar-05 05:45 119 0 gusting 6 13.3
2015-Mar-05 05:30 120 13.3
2015-Mar-05 05:16 119 1 gusting 6 13.3
2015-Mar-05 05:01 120 13.3
2015-Mar-05 04:46 120 13.3
2015-Mar-05 04:30 119 13.3
2015-Mar-05 04:15 120 13.3
2015-Mar-05 04:01 119 13.3
2015-Mar-05 03:45 119 13.3
2015-Mar-05 03:31 119 13.3
2015-Mar-05 03:15 119 1 gusting 6 13.3
2015-Mar-05 03:01 119 0 gusting 3 12.8
2015-Mar-05 02:46 120 0 gusting 7 12.8
2015-Mar-05 02:30 119 0 gusting 6 12.2
2015-Mar-05 02:15 119 0 gusting 2 12.2
2015-Mar-05 02:01 119 12.2
2015-Mar-05 01:45 119 1 gusting 4 12.2
2015-Mar-05 01:30 119 12.8
2015-Mar-05 01:15 119 0 gusting 6 12.8
2015-Mar-05 01:01 119 1 gusting 6 12.8
2015-Mar-05 00:45 119 13.3
2015-Mar-05 00:31 119 13.3
2015-Mar-05 00:15 134 2 gusting 3 13.3
2015-Mar-05 00:01 134 13.3
2015-Mar-04 23:46 134 0 gusting 6 13.9
2015-Mar-04 23:30 142 2 gusting 9 13.3
2015-Mar-04 23:15 148 2 gusting 9 13.3
2015-Mar-04 23:01 188 13.3
2015-Mar-04 22:45 188 0 gusting 3 13.3
2015-Mar-04 22:30 188 0 gusting 3 13.3
2015-Mar-04 22:15 188 13.3
2015-Mar-04 22:01 188 13.9
2015-Mar-04 21:45 188 2 gusting 6 13.9
2015-Mar-04 21:30 250 13.9
2015-Mar-04 21:15 250 13.9
2015-Mar-04 21:01 250 13.9
2015-Mar-04 20:46 250 13.9
2015-Mar-04 20:30 250 13.9
2015-Mar-04 20:15 250 13.9
2015-Mar-04 20:01 250 13.3
2015-Mar-04 19:45 250 13.3
2015-Mar-04 19:30 250 13.3
2015-Mar-04 19:15 250 13.3
2015-Mar-04 19:01 250 13.3
2015-Mar-04 18:45 250 13.3
2015-Mar-04 18:30 250 13.3
2015-Mar-04 18:16 250 13.3
2015-Mar-04 18:01 250 13.3
2015-Mar-04 17:45 250 13.9
2015-Mar-04 17:30 250 13.9
2015-Mar-04 17:15 250 13.9
2015-Mar-04 17:01 250 13.9
2015-Mar-04 16:45 250 13.9
2015-Mar-04 16:31 250 13.9
2015-Mar-04 16:15 250 13.9
2015-Mar-04 16:01 250 13.9
2015-Mar-04 15:45 250 0 gusting 4 13.9
2015-Mar-04 15:30 250 13.3
2015-Mar-04 15:15 250 0 gusting 6 13.3
2015-Mar-04 15:01 250 0 gusting 5 13.3
2015-Mar-04 14:45 250 0 gusting 6 13.3
2015-Mar-04 14:30 255 13.3
2015-Mar-04 14:15 255 0 gusting 4 13.3
2015-Mar-04 14:01 255 0 gusting 4 13.3
2015-Mar-04 13:46 255 0 gusting 3 13.3
2015-Mar-04 13:30 255 0 gusting 5 12.8
2015-Mar-04 13:15 257 2 gusting 4 13.3
2015-Mar-04 13:01 258 1 gusting 6 12.8
2015-Mar-04 12:45 267 1 gusting 6 12.8
2015-Mar-04 12:30 267 2 gusting 4 12.8
2015-Mar-04 12:15 267 1 gusting 4 13.3
2015-Mar-04 12:01 267 0 gusting 4 12.8
2015-Mar-04 11:46 267 0 gusting 5 12.8
2015-Mar-04 11:30 267 2 gusting 5 12.8
2015-Mar-04 11:15 267 0 gusting 3 13.3
2015-Mar-04 11:01 267 13.3
2015-Mar-04 10:45 267 12.8
2015-Mar-04 10:31 267 0 gusting 2 12.8
2015-Mar-04 10:16 267 12.8
2015-Mar-04 10:01 267 0 gusting 3 12.8
2015-Mar-04 09:46 267 12.8
2015-Mar-04 09:30 267 12.8
2015-Mar-04 09:15 267 12.8
2015-Mar-04 09:01 267 12.2
2015-Mar-04 08:45 267 12.2
2015-Mar-04 08:31 267 12.2
2015-Mar-04 08:15 267 11.7
2015-Mar-04 08:01 267 11.7
2015-Mar-04 07:45 267 11.7
2015-Mar-04 07:31 267 11.1
2015-Mar-04 07:16 267 11.1
2015-Mar-04 07:01 267 11.7
2015-Mar-04 06:45 267 11.7
2015-Mar-04 06:30 267 11.7
2015-Mar-04 06:15 267 12.2
2015-Mar-04 06:01 267 12.2
2015-Mar-04 05:45 267 12.2
2015-Mar-04 05:30 267 12.2
2015-Mar-04 05:15 267 0 gusting 2 12.8
2015-Mar-04 05:01 267 12.8
2015-Mar-04 04:45 267 12.8
2015-Mar-04 04:30 267 12.8
2015-Mar-04 04:15 267 12.8
2015-Mar-04 04:01 267 12.8
2015-Mar-04 03:46 267 12.8
2015-Mar-04 03:30 267 12.8
2015-Mar-04 03:15 267 13.3
2015-Mar-04 03:01 267 13.3
2015-Mar-04 02:45 267 13.3
2015-Mar-04 02:31 267 13.3
2015-Mar-04 02:16 267 13.3
2015-Mar-04 02:01 267 13.3
2015-Mar-04 01:46 267 13.3
2015-Mar-04 01:30 267 13.3
2015-Mar-04 01:15 267 13.3
2015-Mar-04 01:01 267 13.9
2015-Mar-04 00:45 267 13.9
2015-Mar-04 00:30 267 13.9
2015-Mar-04 00:16 267 13.9
2015-Mar-04 00:01 267 13.9
2015-Mar-03 23:46 267 14.4
2015-Mar-03 23:30 267 14.4
2015-Mar-03 23:15 267 13.9
2015-Mar-03 23:01 267 14.4
2015-Mar-03 22:45 267 14.4
2015-Mar-03 22:30 267 14.4
2015-Mar-03 22:15 267 15.0
2015-Mar-03 22:01 267 14.4
2015-Mar-03 21:45 267 15.0
2015-Mar-03 21:30 267 15.0
2015-Mar-03 21:16 267 15.0
2015-Mar-03 21:01 267 15.0
2015-Mar-03 20:45 267 15.0
2015-Mar-03 20:31 267 15.0
2015-Mar-03 20:15 267 15.0
2015-Mar-03 20:01 267 15.6
2015-Mar-03 19:45 267 15.6
2015-Mar-03 19:30 267 15.6
2015-Mar-03 19:16 267 15.6
2015-Mar-03 19:01 267 15.6
2015-Mar-03 18:46 267 16.1
2015-Mar-03 18:30 267 16.1
2015-Mar-03 18:15 267 16.7
2015-Mar-03 18:01 267 16.7
2015-Mar-03 17:45 267 16.7
2015-Mar-03 17:30 267 17.2
2015-Mar-03 17:15 267 17.2
2015-Mar-03 17:01 267 17.2
2015-Mar-03 16:46 267 17.8
2015-Mar-03 16:30 267 17.2
2015-Mar-03 16:16 267 17.2
2015-Mar-03 16:01 267 17.2
2015-Mar-03 15:46 267 17.2
2015-Mar-03 15:31 267 1 gusting 4 17.2
2015-Mar-03 15:15 267 18.3
2015-Mar-03 15:01 267 18.9
2015-Mar-03 14:46 267 18.9
2015-Mar-03 14:30 267 18.3
2015-Mar-03 14:15 267 0 gusting 3 17.8
2015-Mar-03 14:01 267 18.3
2015-Mar-03 13:45 267 16.7
2015-Mar-03 13:30 267 1 gusting 4 16.1
2015-Mar-03 13:15 267 15.6
2015-Mar-03 13:01 267 0 gusting 4 15.0
2015-Mar-03 12:46 267 15.0
2015-Mar-03 12:30 267 0 gusting 4 15.0
2015-Mar-03 12:15 267 1 gusting 4 16.1
2015-Mar-03 12:01 267 16.1
2015-Mar-03 11:45 267 14.4
2015-Mar-03 11:30 267 14.4
2015-Mar-03 11:16 267 0 gusting 3 15.6
2015-Mar-03 11:01 277 16.1
2015-Mar-03 10:46 277 16.7
2015-Mar-03 10:30 277 15.6
2015-Mar-03 10:15 277 15.0
2015-Mar-03 10:01 277 14.4